Theta_e
351 356 365 365 363 365 364 363 362 362 361 361 359 359 362 361 360 360 359 360 358 359 359 359 358 358 357 357 357 358 359 358 359 358 360 359 360 360 359 358 358 356 358
354 356 366 365 362 361 361 360 361 361 361 360 361 359 359 361 361 359 359 359 360 359 358 359 358 358 357 357 358 358 358 357 358 357 358 360 358 359 357 358 357 355 356
352 357 358 365 364 361 360 360 360 360 360 359 361 360 360 360 360 361 360 360 358 357 358 358 358 357 356 357 357 359 359 356 354 354 357 352 354 357 356 356 356 355 354
343 356 360 364 365 364 362 362 361 362 361 361 361 360 360 360 360 359 358 358 357 357 357 356 357 357 356 356 356 359 358 357 355 355 352 352 350 356 356 357 355 355 354
341 353 361 365 365 364 362 363 363 362 361 362 361 359 359 358 358 358 358 358 358 357 356 359 359 358 357 356 353 355 357 356 355 353 351 349 349 353 356 356 354 353 351
339 351 361 365 364 364 362 360 361 361 359 358 358 358 358 358 358 356 356 358 357 358 357 359 359 357 358 356 354 353 355 354 353 351 351 351 351 354 355 352 349 349 347
333 350 358 362 361 361 360 359 357 356 354 355 355 357 359 355 355 354 356 353 355 356 356 356 355 356 355 358 354 353 355 353 348 345 345 346 352 355 352 349 346 344 343
332 348 354 360 359 357 355 353 353 352 353 352 352 353 355 355 356 356 352 350 351 352 353 354 355 353 354 355 355 352 351 350 347 342 346 347 352 353 350 347 343 342 340
327 330 348 348 353 355 353 353 352 349 349 351 347 347 350 356 352 349 354 349 349 350 350 352 352 352 353 351 354 352 349 347 344 344 343 346 352 353 349 345 343 340 339
321 323 325 329 330 334 336 347 345 350 346 343 344 341 344 341 344 341 348 347 350 350 349 352 350 349 352 352 354 352 349 344 342 339 338 344 348 349 349 344 340 339 338
318 318 319 320 320 319 318 327 332 336 338 335 331 335 326 320 323 325 337 345 346 350 347 351 350 349 350 351 352 351 349 338 340 340 345 346 349 349 348 345 341 338 336
310 312 313 313 314 314 316 312 312 314 313 314 314 313 315 316 321 326 329 338 340 342 342 342 348 349 347 345 345 350 343 343 342 342 343 347 349 349 348 347 343 340 336
308 309 310 309 309 310 310 311 311 310 311 312 312 311 313 314 313 313 315 316 321 329 323 326 326 330 334 339 342 342 343 342 342 344 344 349 350 348 346 348 345 341 339
308 306 307 308 307 308 311 310 310 308 308 308 309 310 310 309 309 308 310 311 313 315 314 316 318 320 321 337 339 340 340 340 340 341 345 348 348 346 345 345 347 342 340
306 305 305 304 304 306 307 308 308 307 306 307 308 309 309 307 307 308 308 308 309 310 311 310 311 313 315 318 331 338 339 341 340 341 340 346 347 347 345 346 348 343 341
304 303 304 304 303 304 305 306 306 306 306 307 308 307 308 307 306 307 307 307 307 308 309 309 310 311 312 316 318 331 337 337 339 340 339 340 346 346 345 345 348 344 341
303 302 302 303 303 302 303 305 306 305 306 304 305 306 306 307 307 305 306 306 306 307 308 308 309 311 312 315 316 319 330 335 336 338 340 339 339 343 344 346 348 346 343
303 301 302 305 302 302 302 303 303 303 303 303 303 304 305 307 306 305 306 306 306 307 307 307 307 308 309 310 312 316 321 331 333 336 338 340 337 336 341 344 346 347 344
302 301 301 302 301 302 301 301 301 302 302 302 302 303 303 306 306 304 305 305 305 305 305 306 305 305 305 307 308 309 311 318 332 335 334 335 338 337 334 340 343 344 347
302 301 301 302 301 300 300 300 301 301 301 301 301 301 302 304 304 304 305 304 305 304 303 303 302 304 305 307 309 310 311 314 318 329 332 334 335 337 335 333 336 338 344
300 300 300 301 300 299 299 298 297 297 298 300 300 301 301 303 303 303 303 303 303 302 302 302 302 302 302 304 305 306 308 311 311 317 328 332 333 335 335 333 332 332 337
299 299 299 300 300 299 300 298 298 297 298 299 301 301 302 301 302 302 300 301 301 301 301 301 301 300 301 303 300 300 298 302 308 311 319 327 330 333 333 333 332 330 329
298 299 299 299 300 300 299 299 299 299 299 299 299 300 301 301 301 301 300 299 299 299 299 299 299 299 298 300 301 300 296 295 301 305 309 311 324 328 331 331 331 330 330
298 300 300 300 299 300 300 298 296 295 295 296 297 298 299 300 299 300 300 299 299 298 297 298 300 298 297 297 299 303 301 301 297 297 306 309 312 324 327 330 331 331 331
299 299 299 299 299 299 298 298 297 296 297 297 297 297 297 298 299 300 299 298 298 298 298 298 298 298 299 298 298 298 298 299 301 300 298 303 308 315 325 327 330 329 332
300 301 300 299 298 299 299 298 297 296 296 295 295 295 296 297 298 299 300 298 298 298 298 298 298 298 299 299 299 300 298 297 298 299 299 301 302 306 312 326 327 328 330
Wind_Speed
8 8 12 10 10 10 11 13 13 13 13 12 12 12 14 14 13 12 10 10 9 9 9 9 8 7 7 6 6 4 4 3 4 6 8 8 8 9 8 8 11 10 14
14 11 12 11 10 11 12 12 13 15 14 15 12 13 13 14 14 12 11 9 10 10 10 9 9 9 7 4 7 6 5 2 5 6 8 9 8 8 9 11 12 11 13
11 14 12 11 10 11 12 12 13 13 14 15 14 15 15 15 15 14 12 10 10 11 11 10 10 9 7 4 7 6 6 4 3 4 5 5 5 10 12 13 13 13 12
11 14 10 10 9 10 11 12 12 11 12 13 14 14 15 15 16 16 15 13 11 11 11 9 9 10 7 6 4 5 5 5 5 5 3 3 6 10 12 13 12 12 12
13 14 10 11 10 11 12 14 15 14 14 13 13 14 15 15 14 15 16 15 14 12 11 8 7 7 5 4 0 3 5 4 4 2 1 5 5 8 12 11 10 11 11
12 12 9 14 14 16 16 16 17 17 17 16 15 14 14 14 13 13 13 13 12 12 11 10 8 5 4 3 4 4 3 2 3 4 3 3 7 8 10 11 10 10 9
7 12 10 17 18 18 18 17 17 16 15 14 13 11 11 11 12 12 13 14 13 13 11 10 8 7 5 4 7 7 7 3 0 4 4 2 6 12 10 10 9 8 7
5 13 13 16 19 18 17 16 15 14 12 12 10 10 8 7 7 10 11 13 13 14 13 12 10 7 4 4 6 8 5 1 6 4 4 4 8 11 9 9 8 7 7
7 7 11 12 14 17 14 13 11 11 11 9 13 15 14 4 8 12 7 11 10 10 12 12 11 9 7 2 8 10 8 5 2 3 8 7 7 11 10 11 9 7 6
7 7 7 6 5 9 7 11 10 6 9 12 12 17 15 15 15 17 10 10 9 8 10 8 10 9 8 4 9 12 10 9 4 2 2 4 8 9 11 12 8 6 6
6 7 7 7 7 7 6 6 9 12 13 13 11 16 11 6 8 11 14 16 16 12 12 8 5 7 7 2 5 9 11 3 4 4 3 8 17 14 14 15 12 9 6
6 7 7 8 8 7 7 7 7 8 6 6 7 8 6 7 8 10 12 17 17 17 16 15 4 3 1 1 1 6 2 4 5 5 5 20 25 19 17 18 17 13 9
6 5 6 7 7 7 6 5 4 4 4 4 7 7 6 6 5 5 4 5 5 10 5 6 6 3 2 1 1 2 3 4 3 3 7 21 19 19 16 19 19 16 13
7 6 6 6 6 6 4 4 5 4 4 4 5 7 5 4 5 5 5 6 6 5 7 7 5 8 7 4 5 6 6 4 3 4 6 18 18 17 18 19 20 20 18
8 6 6 6 6 6 6 5 4 5 4 5 5 6 5 5 5 5 5 5 5 6 7 8 8 9 9 8 5 6 6 6 7 5 3 14 17 16 17 19 20 18 21
7 6 6 6 5 6 5 5 3 3 4 4 4 5 7 5 5 5 5 5 5 5 5 6 8 9 9 9 8 5 6 5 5 5 4 5 15 16 18 19 22 19 18
6 6 6 4 4 6 4 2 1 3 3 3 3 5 6 5 5 5 4 5 4 5 6 5 5 6 7 9 10 8 5 6 5 8 7 7 7 16 19 18 19 21 20
7 7 6 3 3 5 3 1 2 3 3 3 4 4 6 5 6 5 4 5 4 4 4 5 5 5 6 7 9 10 10 5 7 9 9 8 7 8 13 18 18 22 23
5 6 7 6 4 3 2 2 3 3 2 3 3 3 6 5 5 4 4 5 5 4 4 5 5 5 6 7 9 11 11 11 7 9 11 12 12 8 8 16 18 18 21
6 4 4 5 5 3 2 3 3 3 2 2 2 2 5 4 5 4 4 4 4 4 4 5 5 4 5 8 10 11 12 12 10 10 11 11 11 13 9 12 12 10 20
6 7 8 5 3 3 2 2 2 2 2 2 2 3 5 4 5 5 4 4 4 3 4 5 4 6 4 4 7 9 11 14 17 12 11 10 11 12 13 8 9 9 10
9 8 5 6 5 4 3 1 0 2 2 3 2 3 4 4 6 5 5 4 4 4 4 4 4 4 3 4 4 8 8 10 11 11 11 10 12 10 11 15 12 13 12
8 8 7 5 7 6 5 2 1 3 3 3 3 3 3 5 6 5 5 4 5 3 4 4 5 5 5 4 4 3 6 7 13 16 14 12 16 9 10 13 13 16 15
8 6 8 7 6 6 7 3 1 1 2 2 3 3 4 6 6 5 5 5 4 4 4 4 6 5 5 7 6 5 4 7 13 15 12 12 13 16 14 10 14 14 16
10 8 7 7 7 6 4 4 3 3 2 3 3 5 5 5 5 6 6 6 5 4 4 6 6 6 7 9 6 2 4 8 11 12 15 13 9 13 15 14 13 14 16
9 8 8 8 6 5 5 5 6 5 5 3 4 4 4 3 4 6 6 5 6 5 6 5 7 8 8 7 6 6 5 6 11 12 12 14 14 15 16 14 11 11 15
Wind_Direction
112 103 80 59 46 38 36 36 33 47 38 40 41 36 33 32 24 23 19 16 9 7 5 3 6 6 1 5 359 357 27 47 81 103 89 87 90 95 93 106 106 98 102
117 104 84 63 48 36 34 32 28 38 42 41 41 39 34 30 34 25 21 13 15 3 356 351 348 349 334 14 39 33 44 86 106 100 99 91 92 89 87 83 96 95 100
102 94 79 67 46 41 44 40 39 41 42 46 42 40 36 30 28 31 23 16 14 6 356 356 348 338 332 9 54 51 56 74 119 118 149 143 108 106 102 105 111 111 105
54 65 53 70 58 54 56 50 46 48 50 48 45 43 36 32 29 29 26 20 17 11 7 358 352 341 333 336 64 73 75 71 98 133 193 120 131 119 117 117 121 118 113
67 61 53 65 58 74 65 61 59 59 55 52 46 43 43 41 38 29 24 18 16 9 1 352 345 345 331 330 246 88 89 90 114 175 256 143 124 136 134 120 118 120 116
86 81 61 67 76 80 72 70 68 65 58 54 53 49 45 42 36 35 34 25 16 13 8 359 346 340 323 259 197 183 146 119 121 218 221 131 125 141 135 130 119 110 107
61 92 86 80 72 69 73 71 70 67 60 52 46 43 41 46 44 35 42 24 15 7 1 3 357 342 327 263 222 201 189 174 281 3 344 55 123 143 139 133 134 125 128
72 118 102 93 89 81 78 74 70 64 59 46 35 18 4 3 48 36 45 27 20 10 0 358 354 342 323 310 224 191 179 54 352 17 23 42 142 151 153 147 142 137 132
47 52 122 114 109 96 89 81 69 61 53 40 25 7 351 318 33 16 31 23 13 6 0 358 356 346 328 282 197 191 154 95 43 350 13 1 168 167 169 157 157 163 163
84 48 58 88 80 114 107 90 65 61 49 35 27 7 1 12 21 355 25 0 343 341 347 346 350 349 335 274 194 176 163 150 183 168 124 301 243 178 173 162 174 182 189
42 78 48 51 45 35 78 55 49 23 32 32 21 11 0 1 11 346 358 356 357 344 338 330 322 353 6 272 238 188 179 167 207 193 170 220 225 196 182 177 179 174 205
82 37 64 46 35 26 26 37 27 31 16 30 19 16 355 5 1 7 348 2 356 352 349 352 353 313 114 340 220 234 191 198 198 195 185 199 197 196 194 187 190 184 183
87 71 45 63 52 37 26 30 19 38 357 22 16 23 2 13 349 358 350 344 342 345 342 330 340 343 294 303 292 271 236 218 215 209 233 205 198 191 206 197 192 178 173
102 78 56 60 56 54 36 19 37 15 6 22 12 13 25 13 357 355 357 344 351 338 343 346 341 330 327 225 212 218 217 216 237 251 234 206 201 201 196 214 198 181 169
125 119 79 54 57 43 56 26 31 19 4 15 12 7 36 14 350 6 344 347 343 353 357 347 338 329 325 317 252 218 230 226 210 227 239 210 206 197 202 198 205 202 176
127 113 93 66 49 64 48 41 11 37 353 8 8 7 37 11 356 359 344 341 350 357 344 345 332 328 323 320 310 259 227 248 270 236 238 235 211 202 200 213 202 205 202
125 116 103 97 53 77 69 37 354 66 0 8 358 11 32 5 10 341 334 336 340 346 340 327 319 324 323 322 314 303 254 226 245 262 239 235 215 212 206 206 219 196 210
146 147 118 109 81 73 67 35 28 47 3 12 349 18 12 355 11 346 341 328 343 346 336 331 327 333 328 324 323 313 303 235 227 241 245 256 218 209 215 211 216 207 204
181 157 151 156 110 85 41 42 34 34 10 22 357 4 348 353 359 356 335 324 344 348 339 346 339 327 323 315 308 305 298 299 252 241 237 237 248 223 202 211 210 224 206
175 196 146 138 139 110 47 55 17 4 344 14 340 344 348 339 347 337 321 323 335 333 340 331 324 315 334 322 319 313 307 296 284 275 243 233 234 234 221 202 204 210 207
195 204 193 159 112 101 66 55 2 319 315 334 328 351 316 312 320 310 291 307 317 325 314 328 316 318 311 302 315 325 321 311 301 293 279 248 236 229 229 209 200 200 208
195 213 170 172 155 119 120 109 272 281 313 270 268 328 292 307 298 297 309 307 321 317 323 309 307 302 301 304 326 319 318 312 296 294 280 254 242 230 225 228 204 200 197
211 190 187 180 156 154 152 141 287 351 327 335 344 287 269 291 292 301 303 320 307 315 299 289 293 288 301 302 288 254 309 304 320 302 302 308 270 224 224 220 217 200 192
202 205 182 179 191 158 170 161 172 235 268 278 260 268 302 294 290 293 305 292 298 285 291 283 299 284 284 290 290 258 256 282 298 298 289 288 317 261 226 216 212 203 191
181 192 175 205 186 182 157 144 195 235 243 251 284 303 295 288 305 302 296 300 295 285 277 274 287 293 286 284 277 295 279 292 285 278 288 294 291 287 239 224 210 207 189
175 179 173 190 197 162 152 217 214 221 244 269 273 275 281 286 294 291 288 293 284 289 276 278 277 274 279 272 287 271 267 287 292 284 276 281 285 273 302 231 214 214 183